Weather History for KEHO - August, 2013

Change the Weather History Date:

Saturday, August 31, 2013

  Actual Average (KHKY) Record (KHKY)
Temperature  
Mean Temperature 78 °F -  
Max Temperature 87 °F 84 °F 96 °F (1953)
Min Temperature 68 °F 64 °F 51 °F (1976)
Cooling Degree Days 12    
Growing Degree Days 28 (Base 50)    
Moisture  
Dew Point 69 °F    
Average Humidity 87    
Maximum Humidity 98    
Minimum Humidity 59    
Precipitation  
Precipitation 1.76 in - - ()
Sea Level Pressure  
Sea Level Pressure 29.96 in    
Wind  
Wind Speed 2 mph (South)    
Max Wind Speed 10 mph    
Max Gust Speed 30 mph    
Visibility 8 miles    
Events Rain    
Averages and records for this station are not official NWS values.
T = Trace of Precipitation, MM = Missing Value Source: NWS Daily Summary

Daily Weather History Graph

Daily Weather History Graph

Search for Another Location

Airport or City:

Trip Planner

Search our weather history database for the weather conditions in past years. The results will help you decide how hot, cold, wet, or windy it might be!

Date:

Astronomy

Aug. 31, 2013 Rise Set
Actual Time 6:58 AM EDT 7:54 PM EDT
Civil Twilight 6:32 AM EDT 8:20 PM EDT
Nautical Twilight 6:01 AM EDT 8:50 PM EDT
Astronomical Twilight 5:29 AM EDT 9:22 PM EDT
Moon 2:32 AM EDT (8/31) 4:46 PM EDT (8/31)
Length of Visible Light 13h 47m
Length of Day
12h 56m
Waning Crescent, 21% of the Moon is Illuminated
Aug 31
Waning Crescent
Sep 5
New
Sep 12
First Quarter
Sep 19
Full
Sep 26
Last Quarter

Hourly Weather History & Observations

Time (EDT) Temp. Heat Index Dew Point Humidity Pressure Visibility Wind Dir Wind Speed Gust Speed Precip Events Conditions
12:15 AM 72.7 °F - 70.2 °F 92% 30.00 in 10.0 mi Calm Calm - N/A   Overcast
12:35 AM 72.5 °F - 70.3 °F 93% 30.00 in 7.0 mi Calm Calm - N/A   Overcast
12:55 AM 72.9 °F - 70.3 °F 92% 30.00 in 10.0 mi Calm Calm - N/A   Overcast
1:15 AM 74.3 °F - 69.8 °F 86% 29.99 in 10.0 mi Calm Calm - N/A   Scattered Clouds
1:35 AM 71.2 °F - 69.8 °F 95% 29.98 in 5.0 mi Calm Calm - N/A   Clear
1:55 AM 70.9 °F - 69.8 °F 96% 29.98 in 7.0 mi SE 3.5 mph - N/A   Clear
2:15 AM 70.7 °F - 69.3 °F 95% 29.98 in 7.0 mi Calm Calm - N/A   Clear
2:35 AM 69.6 °F - 68.0 °F 95% 29.99 in 5.0 mi Calm Calm - N/A   Clear
2:55 AM 69.4 °F - 68.4 °F 96% 29.98 in 5.0 mi Calm Calm - N/A   Clear
3:15 AM 70.0 °F - 68.7 °F 96% 29.98 in 7.0 mi Calm Calm - N/A   Clear
3:35 AM 70.7 °F - 68.5 °F 93% 29.98 in 10.0 mi Calm Calm - N/A   Clear
3:55 AM 71.1 °F - 68.9 °F 93% 29.97 in 10.0 mi Calm Calm - N/A   Clear
4:15 AM 69.8 °F - 68.2 °F 95% 29.97 in 5.0 mi Calm Calm - N/A   Clear
4:35 AM 68.9 °F - 67.8 °F 96% 29.97 in 5.0 mi Calm Calm - N/A   Clear
4:55 AM 68.9 °F - 68.0 °F 97% 29.97 in 5.0 mi Calm Calm - N/A   Scattered Clouds
5:15 AM 68.9 °F - 68.0 °F 97% 29.97 in 7.0 mi Calm Calm - N/A   Scattered Clouds
5:35 AM 68.9 °F - 68.0 °F 97% 29.97 in 5.0 mi SSE 3.5 mph - N/A   Clear
5:55 AM 68.5 °F - 67.6 °F 97% 29.97 in 4.0 mi SE 3.5 mph - N/A   Clear
6:15 AM 68.4 °F - 67.5 °F 97% 29.97 in 5.0 mi Calm Calm - N/A   Clear
6:35 AM 68.5 °F - 67.6 °F 97% 29.97 in 7.0 mi SSE 3.5 mph - N/A   Clear
6:55 AM 68.0 °F - 67.1 °F 97% 29.97 in 5.0 mi Calm Calm - N/A   Clear
7:15 AM 68.2 °F - 67.3 °F 97% 29.97 in 4.0 mi Calm Calm - N/A   Clear
7:35 AM 68.9 °F - 68.0 °F 97% 29.97 in 4.0 mi Calm Calm - N/A   Clear
7:55 AM 69.3 °F - 68.2 °F 96% 29.97 in 5.0 mi Calm Calm - N/A   Clear
8:15 AM 70.0 °F - 68.4 °F 95% 29.98 in 5.0 mi Calm Calm - N/A   Clear
8:35 AM 71.8 °F - 69.3 °F 92% 29.98 in 7.0 mi SSE 3.5 mph - N/A   Scattered Clouds
8:55 AM 72.1 °F - 69.8 °F 92% 29.99 in 7.0 mi Calm Calm - N/A   Scattered Clouds
9:15 AM 73.4 °F - 69.8 °F 88% 29.99 in 7.0 mi South 5.8 mph - N/A   Clear
9:35 AM 74.3 °F - 70.2 °F 87% 29.99 in 7.0 mi SSW 3.5 mph - N/A   Scattered Clouds
9:55 AM 76.1 °F - 70.9 °F 84% 30.00 in 10.0 mi Calm Calm - N/A   Mostly Cloudy
10:15 AM 76.8 °F - 71.4 °F 83% 30.00 in 10.0 mi WSW 3.5 mph - N/A   Scattered Clouds
10:35 AM 77.4 °F - 71.8 °F 83% 29.99 in 10.0 mi Calm Calm - N/A   Mostly Cloudy
10:55 AM 79.0 °F - 72.0 °F 79% 29.99 in 10.0 mi SSW 3.5 mph - N/A   Mostly Cloudy
11:15 AM 79.3 °F - 71.2 °F 76% 29.99 in 10.0 mi SW 3.5 mph - N/A   Scattered Clouds
11:35 AM 81.1 °F 85.2 °F 71.4 °F 72% 29.98 in 10.0 mi South 5.8 mph - N/A   Clear
11:55 AM 82.4 °F 87.4 °F 72.3 °F 71% 29.98 in 10.0 mi South 8.1 mph - N/A   Clear
12:15 PM 82.2 °F 87.1 °F 71.8 °F 71% 29.98 in 10.0 mi South 3.5 mph - N/A   Scattered Clouds
12:35 PM 82.9 °F 87.5 °F 71.1 °F 67% 29.97 in 10.0 mi SW 6.9 mph - N/A   Scattered Clouds
12:55 PM 83.5 °F 88.2 °F 71.1 °F 66% 29.97 in 10.0 mi SW 4.6 mph - N/A   Scattered Clouds
1:15 PM 84.7 °F 90.4 °F 71.6 °F 65% 29.96 in 10.0 mi SSE 5.8 mph - N/A   Scattered Clouds
1:35 PM 84.9 °F 89.7 °F 70.7 °F 62% 29.96 in 10.0 mi South 4.6 mph - N/A   Scattered Clouds
1:55 PM 84.9 °F 89.7 °F 70.5 °F 62% 29.95 in 10.0 mi South 6.9 mph - N/A   Scattered Clouds
2:15 PM 86.0 °F 90.7 °F 70.0 °F 59% 29.94 in 10.0 mi SSW 3.5 mph - N/A   Scattered Clouds
2:35 PM 85.1 °F 89.8 °F 70.3 °F 61% 29.93 in 10.0 mi South 5.8 mph - N/A   Scattered Clouds
2:55 PM 85.3 °F 90.1 °F 70.5 °F 61% 29.92 in 10.0 mi South 6.9 mph - N/A   Clear
3:15 PM 86.5 °F 92.1 °F 71.2 °F 60% 29.92 in 10.0 mi SSE 4.6 mph - N/A   Clear
3:35 PM 86.2 °F 91.4 °F 70.7 °F 60% 29.92 in 10.0 mi South 5.8 mph - N/A   Clear
3:55 PM 86.4 °F 91.4 °F 70.5 °F 59% 29.92 in 10.0 mi South 9.2 mph - N/A   Clear
4:15 PM 87.6 °F 94.3 °F 72.3 °F 60% 29.91 in 10.0 mi SSW 9.2 mph - N/A   Scattered Clouds
4:35 PM 85.3 °F 90.1 °F 70.5 °F 61% 29.92 in 10.0 mi South 5.8 mph - N/A   Mostly Cloudy
4:55 PM 76.1 °F - 68.9 °F 78% 29.96 in 10.0 mi NNE 5.8 mph 20.7 mph N/A   Overcast
5:15 PM 69.1 °F - 66.2 °F 91% 30.00 in 1.2 mi North 10.4 mph 29.9 mph 0.78 in Rain Heavy Rain
5:35 PM 69.3 °F - 65.1 °F 87% 29.95 in 1.2 mi East 5.8 mph - 1.71 in Rain Heavy Rain
5:55 PM 68.4 °F - 66.7 °F 95% 29.93 in 7.0 mi Calm Calm - 1.76 in Rain Light Rain
6:15 PM 68.9 °F - 66.7 °F 93% 29.91 in 10.0 mi SSE 4.6 mph - N/A   Mostly Cloudy
6:35 PM 68.9 °F - 67.1 °F 94% 29.91 in 10.0 mi WNW 3.5 mph - N/A   Mostly Cloudy
6:55 PM 69.8 °F - 68.0 °F 94% 29.91 in 10.0 mi WNW 5.8 mph - N/A   Scattered Clouds
7:15 PM 70.3 °F - 68.2 °F 93% 29.91 in 10.0 mi NW 8.1 mph - N/A   Scattered Clouds
7:35 PM 70.2 °F - 68.2 °F 93% 29.92 in 10.0 mi WNW 5.8 mph - N/A   Clear
7:55 PM 70.0 °F - 68.0 °F 93% 29.93 in 10.0 mi WNW 4.6 mph - N/A   Clear
8:15 PM 69.8 °F - 68.2 °F 95% 29.94 in 10.0 mi NNW 3.5 mph - N/A   Clear
8:35 PM 69.8 °F - 68.4 °F 95% 29.94 in 7.0 mi Calm Calm - N/A   Clear
8:55 PM 69.8 °F - 68.5 °F 96% 29.95 in 7.0 mi Calm Calm - N/A   Clear
9:15 PM 69.8 °F - 68.5 °F 96% 29.96 in 7.0 mi Calm Calm - N/A   Clear
9:35 PM 69.1 °F - 68.2 °F 97% 29.96 in 5.0 mi ESE 4.6 mph - N/A   Clear
9:55 PM 68.9 °F - 68.0 °F 97% 29.96 in 5.0 mi East 3.5 mph - N/A   Clear
10:15 PM 68.2 °F - 67.5 °F 98% 29.95 in 4.0 mi Calm Calm - N/A   Clear
10:35 PM 68.9 °F - 68.0 °F 97% 29.95 in 7.0 mi Calm Calm - N/A   Clear
10:55 PM 68.9 °F - 68.0 °F 97% 29.95 in 5.0 mi South 3.5 mph - N/A   Clear
11:15 PM 68.9 °F - 68.0 °F 97% 29.94 in 5.0 mi SSE 3.5 mph - N/A   Clear
11:35 PM 68.9 °F - 68.0 °F 97% 29.94 in 7.0 mi Calm Calm - N/A   Clear
11:55 PM 68.0 °F - 67.1 °F 97% 29.95 in 5.0 mi WSW 3.5 mph - N/A   Clear